Location: Newark
(59.0255°N, 3.2035°E)
Time: 11:18:08
(UTC+00:00)

N. Korean satellite - Visible Passes

Search period start: 06 December 2019 00:00
Search period end: 16 December 2019 00:00
Orbit: 456 x 506 km, 97.2° (Epoch: 05 December)

Date Brightness Start Highest point End Pass type
(mag) Time Alt. Az. Time Alt. Az. Time Alt. Az.
06 Dec 8.8 05:07:31 10° NE 05:10:38 26° E 05:13:41 10° SSE visible
06 Dec 6.9 06:40:44 10° N 06:44:11 42° WNW 06:47:34 10° SW visible
06 Dec 7.0 15:51:18 10° SE 15:54:49 42° ENE 15:58:21 10° N visible
06 Dec 8.9 17:25:07 10° SSW 17:28:21 28° W 17:31:36 10° NNW visible
07 Dec 9.6 04:42:36 10° NE 04:44:57 16° E 04:47:17 10° SE visible
07 Dec 6.4 06:15:12 10° NNE 06:18:49 72° WNW 06:22:22 10° SSW visible
07 Dec 7.8 16:59:11 10° S 17:02:47 46° W 17:06:23 10° NNW visible
08 Dec 6.9 05:49:45 10° NNE 05:53:22 65° ESE 05:56:53 10° S visible
08 Dec 7.9 07:23:44 10° N 07:26:26 20° WNW 07:29:05 10° WSW visible
08 Dec 6.7 16:33:34 10° SSE 16:37:17 80° WSW 16:41:00 10° NNW visible
08 Dec 10.0 18:09:37 10° WSW 18:11:19 13° W 18:13:00 10° WNW visible
09 Dec 8.1 05:24:27 10° NNE 05:27:50 37° E 05:31:08 10° SSE visible
09 Dec 7.3 06:57:59 10° N 07:01:11 30° WNW 07:04:19 10° SW visible
09 Dec 6.6 16:08:12 10° SSE 16:11:52 60° ENE 16:15:31 10° N visible
09 Dec 9.4 17:42:47 10° SW 17:45:35 20° W 17:48:24 10° NW visible
10 Dec 9.1 04:59:19 10° NE 05:02:12 22° E 05:05:01 10° SE visible
10 Dec 6.7 06:32:21 10° N 06:35:51 49° WNW 06:39:16 10° SW visible
10 Dec 7.2 15:43:06 10° SE 15:46:31 36° ENE 15:49:55 10° N visible
10 Dec 8.6 17:16:35 10° SSW 17:19:57 32° W 17:23:19 10° NNW visible
11 Dec 9.8 04:34:35 10° NE 04:36:30 14° E 04:38:22 10° ESE visible
11 Dec 6.4 06:06:50 10° NNE 06:10:27 86° WNW 06:13:58 10° SSW visible
11 Dec 7.4 16:50:46 10° S 16:54:24 55° W 16:58:02 10° NNW visible
12 Dec 7.3 05:41:26 10° NNE 05:44:58 54° ESE 05:48:24 10° S visible
12 Dec 7.7 07:15:16 10° N 07:18:07 22° WNW 07:20:55 10° WSW visible
12 Dec 6.6 16:25:13 10° SSE 16:28:55 86° ENE 16:32:37 10° NNW visible
12 Dec 9.9 18:00:44 10° WSW 18:02:51 15° W 18:04:58 10° NW visible
13 Dec 8.4 05:16:10 10° NNE 05:19:23 31° E 05:22:32 10° SSE visible
13 Dec 7.1 06:49:33 10° N 06:52:50 35° WNW 06:56:03 10° SW visible
13 Dec 6.8 15:59:56 10° SE 16:03:31 50° ENE 16:07:04 10° N visible
13 Dec 9.2 17:34:08 10° SSW 17:37:09 23° W 17:40:08 10° NW visible
14 Dec 9.3 04:51:07 10° NE 04:53:43 19° E 04:56:17 10° SE visible
14 Dec 6.5 06:23:57 10° N 06:27:29 59° WNW 06:30:55 10° SSW visible
14 Dec 8.2 17:08:04 10° SSW 17:11:32 38° W 17:14:59 10° NNW visible
15 Dec 10.0 04:26:43 10° ENE 04:27:58 11° E 04:29:14 10° ESE visible
15 Dec 6.6 05:58:28 10° NNE 06:02:02 80° ESE 06:05:31 10° SSW visible
15 Dec 8.0 07:32:39 10° NNW 07:35:01 17° NW 07:37:20 10° W visible
15 Dec 7.0 16:42:20 10° S 16:45:59 66° WSW 16:49:38 10° NNW visible
15 Dec 10.2 18:19:35 10° W 18:20:07 10° W 18:20:40 10° WNW visible
